EN

Hourly Weather Alibunar

Today, 22 January, Friday

Time Temperature Precipitation Wind Pressure Humidity
00:00 0°C° 0 mm 5 mps 755 mmHg 84%
01:00 0°C° 0 mm 5 mps 754 mmHg 83%
02:00 +1°C° 0 mm 6 mps 754 mmHg 83%
03:00 +1°C° 0 mm 6 mps 753 mmHg 82%
04:00 +2°C° 0 mm 6 mps 753 mmHg 81%
05:00 +2°C° 0 mm 6 mps 753 mmHg 81%
06:00 +2°C° 0 mm 7 mps 752 mmHg 81%
07:00 +2°C° 0 mm 7 mps 752 mmHg 81%
08:00 +3°C° 0 mm 7 mps 752 mmHg 80%
09:00 +4°C° 0 mm 7 mps 752 mmHg 79%
10:00 +5°C° 0 mm 7 mps 752 mmHg 77%
11:00 +6°C° 0 mm 7 mps 751 mmHg 76%
12:00 +6°C° 0 mm 7 mps 751 mmHg 75%
13:00 +7°C° 0 mm 8 mps 750 mmHg 74%
14:00 +6°C° 0 mm 8 mps 750 mmHg 76%
15:00 +6°C° 0 mm 8 mps 750 mmHg 77%
16:00 +5°C° 0 mm 7 mps 750 mmHg 79%
17:00 +5°C° 0 mm 7 mps 749 mmHg 79%
18:00 +5°C° 0 mm 7 mps 749 mmHg 78%
19:00 +5°C° 0 mm 7 mps 749 mmHg 78%
20:00 +5°C° 0 mm 7 mps 749 mmHg 78%
21:00 +5°C° 0 mm 8 mps 748 mmHg 77%
22:00 +5°C° 0 mm 8 mps 748 mmHg 76%
23:00 +5°C° 0 mm 8 mps 747 mmHg 77%

Tomorrow, 23 January, Saturday

Time Temperature Precipitation Wind Pressure Humidity
00:00 +5°C° 0 mm 8 mps 747 mmHg 77%
01:00 +5°C° 0 mm 8 mps 747 mmHg 77%
02:00 +5°C° 0 mm 8 mps 746 mmHg 76%
03:00 +5°C° 0 mm 8 mps 746 mmHg 76%
04:00 +5°C° 0 mm 8 mps 746 mmHg 75%
05:00 +5°C° 0 mm 8 mps 745 mmHg 75%
06:00 +5°C° 0 mm 8 mps 745 mmHg 75%
07:00 +5°C° 0 mm 8 mps 745 mmHg 74%
08:00 +5°C° 0 mm 8 mps 745 mmHg 72%
09:00 +6°C° 0 mm 9 mps 745 mmHg 69%
10:00 +7°C° 0 mm 10 mps 744 mmHg 67%
11:00 +7°C° 0 mm 10 mps 744 mmHg 66%
12:00 +7°C° 0 mm 10 mps 743 mmHg 66%
13:00 +8°C° 0 mm 10 mps 743 mmHg 65%
14:00 +7°C° 0.1 mm 10 mps 742 mmHg 67%
15:00 +7°C° 0.1 mm 9 mps 742 mmHg 69%
16:00 +6°C° 0.1 mm 9 mps 742 mmHg 72%
17:00 +6°C° 0.1 mm 9 mps 742 mmHg 74%
18:00 +5°C° 0.1 mm 8 mps 741 mmHg 76%
19:00 +5°C° 0.1 mm 8 mps 741 mmHg 78%
20:00 +5°C° 0.3 mm 8 mps 741 mmHg 81%
21:00 +4°C° 0.3 mm 7 mps 741 mmHg 83%
22:00 +4°C° 0.3 mm 6 mps 741 mmHg 86%
23:00 +4°C° 0 mm 6 mps 741 mmHg 85%

Day after tomorrow, 24 January, Sunday

Time Temperature Precipitation Wind Pressure Humidity
00:00 +4°C° 0 mm 6 mps 741 mmHg 85%
01:00 +4°C° 0 mm 6 mps 741 mmHg 84%
02:00 +5°C° 0 mm 5 mps 741 mmHg 83%
03:00 +3°C° 0 mm 5 mps 741 mmHg 82%
04:00 +3°C° 0 mm 5 mps 740 mmHg 82%
05:00 +3°C° 0 mm 5 mps 740 mmHg 81%
06:00 +3°C° 0 mm 5 mps 741 mmHg 80%
07:00 +3°C° 0 mm 6 mps 741 mmHg 80%
08:00 +4°C° 0 mm 6 mps 741 mmHg 77%
09:00 +5°C° 0 mm 6 mps 741 mmHg 73%
10:00 +7°C° 0 mm 6 mps 741 mmHg 70%
11:00 +8°C° 0 mm 5 mps 741 mmHg 66%
12:00 +9°C° 0 mm 5 mps 741 mmHg 62%
13:00 +10°C° 0 mm 4 mps 741 mmHg 58%
14:00 +10°C° 0 mm 3 mps 741 mmHg 60%
15:00 +10°C° 0 mm 3 mps 742 mmHg 62%
16:00 +9°C° 0 mm 2 mps 742 mmHg 63%
17:00 +8°C° 0 mm 2 mps 742 mmHg 69%
18:00 +8°C° 0 mm 3 mps 742 mmHg 74%
19:00 +7°C° 0 mm 3 mps 742 mmHg 79%
20:00 +5°C° 0 mm 3 mps 742 mmHg 81%
21:00 +6°C° 0 mm 2 mps 742 mmHg 82%
22:00 +6°C° 0 mm 2 mps 741 mmHg 83%
23:00 +5°C° 1.2 mm 3 mps 740 mmHg 86%

25 January, Monday

Time Temperature Precipitation Wind Pressure Humidity
00:00 +5°C° 1.2 mm 4 mps 739 mmHg 88%
01:00 +4°C° 1.2 mm 4 mps 738 mmHg 91%
02:00 +3°C° 1.6 mm 5 mps 738 mmHg 90%
03:00 +3°C° 1.6 mm 5 mps 737 mmHg 90%
04:00 +3°C° 1.6 mm 6 mps 736 mmHg 90%
05:00 +2°C° 3.4 mm 6 mps 737 mmHg 93%
06:00 0°C° 3.4 mm 7 mps 737 mmHg 95%
07:00 -2°C° 3.4 mm 7 mps 737 mmHg 97%
08:00 -2°C° 2.4 mm 8 mps 738 mmHg 98%
09:00 -3°C° 2.4 mm 9 mps 739 mmHg 98%
10:00 -4°C° 2.4 mm 9 mps 739 mmHg 98%
11:00 -4°C° 1 mm 9 mps 740 mmHg 97%
12:00 -3°C° 1 mm 9 mps 741 mmHg 95%
13:00 -3°C° 1 mm 9 mps 742 mmHg 93%
14:00 -2°C° 0.3 mm 8 mps 742 mmHg 92%
15:00 -2°C° 0.3 mm 8 mps 743 mmHg 91%
16:00 -2°C° 0.3 mm 7 mps 744 mmHg 89%
17:00 -1°C° 0 mm 6 mps 744 mmHg 86%
18:00 -1°C° 0 mm 6 mps 745 mmHg 83%
19:00 -1°C° 0 mm 6 mps 746 mmHg 80%
20:00 -2°C° 0 mm 6 mps 747 mmHg 81%
21:00 -1°C° 0 mm 5 mps 748 mmHg 81%
22:00 -2°C° 0 mm 5 mps 748 mmHg 82%
23:00 -2°C° 0 mm 5 mps 749 mmHg 82%

26 January, Tuesday

Time Temperature Precipitation Wind Pressure Humidity
00:00 -4°C° 0 mm 5 mps 750 mmHg 83%
01:00 -4°C° 0 mm 5 mps 750 mmHg 83%
02:00 -4°C° 0 mm 4 mps 750 mmHg 84%
03:00 -4°C° 0 mm 4 mps 751 mmHg 85%
04:00 -4°C° 0 mm 4 mps 751 mmHg 86%
05:00 -4°C° 0 mm 3 mps 752 mmHg 86%
06:00 -5°C° 0 mm 3 mps 752 mmHg 87%
07:00 -5°C° 0 mm 3 mps 753 mmHg 88%
08:00 -3°C° 0 mm 2 mps 753 mmHg 86%
09:00 -2°C° 0 mm 2 mps 753 mmHg 85%
10:00 -1°C° 0 mm 2 mps 754 mmHg 84%
11:00 +1°C° 0 mm 2 mps 754 mmHg 83%
12:00 +1°C° 0 mm 2 mps 753 mmHg 83%
13:00 +2°C° 0 mm 2 mps 753 mmHg 83%
14:00 +2°C° 0 mm 2 mps 753 mmHg 82%
15:00 +2°C° 0 mm 2 mps 753 mmHg 80%
16:00 +2°C° 0 mm 2 mps 753 mmHg 79%
17:00 +1°C° 0 mm 2 mps 753 mmHg 79%
18:00 -1°C° 0 mm 2 mps 753 mmHg 79%
19:00 +1°C° 0 mm 1 mps 754 mmHg 79%
20:00 +1°C° 0 mm 1 mps 754 mmHg 80%
21:00 +1°C° 0 mm 1 mps 754 mmHg 81%
22:00 +1°C° 0 mm 1 mps 754 mmHg 82%
23:00 +1°C° 0.2 mm 1 mps 754 mmHg 86%

27 January, Wednesday

Time Temperature Precipitation Wind Pressure Humidity
00:00 +1°C° 0.2 mm 1 mps 754 mmHg 91%
01:00 -1°C° 0.2 mm 2 mps 755 mmHg 96%
02:00 -2°C° 0 mm 2 mps 755 mmHg 95%
03:00 -2°C° 0 mm 2 mps 755 mmHg 95%
04:00 -3°C° 0 mm 2 mps 755 mmHg 95%
05:00 -3°C° 0 mm 2 mps 755 mmHg 94%
06:00 -3°C° 0 mm 2 mps 755 mmHg 94%
07:00 -3°C° 0 mm 2 mps 755 mmHg 94%
08:00 0°C° 0 mm 1 mps 755 mmHg 92%
09:00 0°C° 0 mm 1 mps 755 mmHg 89%
10:00 +1°C° 0 mm 1 mps 755 mmHg 87%
11:00 +2°C° 0 mm 1 mps 754 mmHg 85%
12:00 +2°C° 0 mm 1 mps 754 mmHg 83%
13:00 +3°C° 0 mm 1 mps 753 mmHg 80%
14:00 +3°C° 0 mm 1 mps 753 mmHg 81%
15:00 +1°C° 0 mm 2 mps 753 mmHg 81%
16:00 +1°C° 0 mm 2 mps 753 mmHg 81%
17:00 -1°C° 0 mm 2 mps 753 mmHg 82%
18:00 -1°C° 0 mm 2 mps 753 mmHg 83%
19:00 -1°C° 0 mm 2 mps 753 mmHg 84%
20:00 -1°C° 0 mm 2 mps 753 mmHg 83%
21:00 -1°C° 0 mm 2 mps 754 mmHg 82%
22:00 -1°C° 0 mm 2 mps 754 mmHg 81%
23:00 -1°C° 0.1 mm 2 mps 754 mmHg 85%
Show more